Regional Weather Roundup
Issued by NWS Sterling, VA

Home | Current Version | Previous Version | Text Only | Print | Product List | Glossary On
Versions: 1 2 3 4 5 6 7 8 9 10 11 12 13 14 15 16 17 18 19 20 21 22 23 24 25 26 27 28 29 30 31 32 33 34 35 36 37 38 39 40 41 42 43 44 45 46 47 48 49 50
000
ASUS41 KLWX 050110
RWRLWX

REGIONAL WEATHER ROUNDUP
NATIONAL WEATHER SERVICE BALTIMORE MD/WASHINGTON DC
800 PM EST SUN DEC 04 2016

Note: "FAIR" indicates few or no clouds below 12,000 feet
with no significant weather and/or obstructions to visibility.
 TC=TEMPERATURE CELSIUS

 * =Non NWS site. Station does not report precipitation (e.g. rain,
    snow, etc.), thunder, or fog.

DCZ001-MDZ009-015-VAZ040>042-051-053>054-050200-
WASHINGTON METRO

CITY           SKY/WX    TMP DP  RH WIND       PRES   REMARKS
WASHINGTON NAT CLOUDY    45  33  63 S12       30.16F
DULLES         CLOUDY    42  29  59 S6        30.15F
ANDREWS AFB    CLOUDY    42  30  63 S6        30.15F
FT BELVOIR     CLOUDY    43  31  61 S5        30.16F
QUANTICO       CLOUDY    45  32  60 S12       30.18F
COLLEGE PARK*  CLOUDY    43  30  61 S3        30.16F
LEESBURG*      CLOUDY    43  32  65 MISG      30.15F
MANASSAS*      CLOUDY    43  32  65 S6        30.16F
GAITHERSBURG*  MOCLDY    41  27  56 SE5       30.18F

$$

MDZ006>007-011-014-050200-
BALTIMORE METRO

CITY           SKY/WX    TMP DP  RH WIND       PRES   REMARKS
BWI AIRPORT    CLOUDY    42  32  67 S3        30.16F
MD SCIENCE CTR   N/A     44  31  60 MISG      30.16F
MARTIN STATE   CLOUDY    45  36  70 SE8       30.19S
ANNAPOLIS      CLOUDY    45  33  63 S6        30.17F
FORT MEADE*    CLOUDY    39  32  75 S3        30.19R

$$

MDZ012-015-019>023-050200-
MARYLAND EASTERN SHORE

CITY           SKY/WX    TMP DP  RH WIND       PRES   REMARKS
OCEAN CITY     MOCLDY    41  34  76 CALM      30.19F
SALISBURY      CLOUDY    41  36  82 CALM      30.19S
BAY BRIDGE AP* CLOUDY    43  32  65 S6        30.17S
CAMBRIDGE*     CLOUDY    39  34  81 CALM      30.18S
EASTON*        CLEAR     41  30  65 S3        30.20F

$$

MDZ017>025-050200-
SOUTHERN MARYLAND

CITY           SKY/WX    TMP DP  RH WIND       PRES   REMARKS
PATUXENT RIVER CLOUDY    44  31  60 S6        30.17F
ST INIGOES     CLOUDY    45  35  68 S7        30.18S
LEONARDTOWN*   CLOUDY    41  32  70 CALM      30.19F

$$

MDZ003>005-050200-
NORTH CENTRAL MARYLAND

CITY           SKY/WX    TMP DP  RH WIND       PRES   REMARKS
FREDERICK*     NOT AVBL
HAGERSTOWN APT CLOUDY    41  27  57 SE6       30.11F
WESTMINSTER*   MOCLDY    39  28  65 CALM      30.12F

$$

MDZ501>502-050200-
WESTERN MARYLAND

CITY           SKY/WX    TMP DP  RH WIND       PRES   REMARKS
OAKLAND*       CLOUDY    30  28  93 SE17G25   29.93F WCI  18
CUMBERLAND*    NOT AVBL

$$

VAZ025>031-050200-
SHENANDOAH VALLEY

CITY           SKY/WX    TMP DP  RH WIND       PRES   REMARKS
WINCHESTER*    CLOUDY    39  28  65 S6        30.10F
FRONT ROYAL*   CLOUDY    41  32  70 CALM      30.10R
LURAY*         LGT RAIN  37  36  93 SW6       30.10S
NEW MARKET*    CLOUDY    39  32  78 S3        30.10S
STAUNTON*      DRIZZLE   35  32  88 S7        30.12F
WAYNESBORO*    CLOUDY    35  33  90 SE3       30.10S

$$

WVZ021-048>050-054>055-050200-
EASTERN WEST VIRGINIA PANHANDLE

CITY           SKY/WX    TMP DP  RH WIND       PRES   REMARKS
MARTINSBURG    CLOUDY    39  28  64 S3        30.12F
PETERSBURG*    RAIN      39  36  89 CALM      30.07S

$$

VAZ036>039-050-050200-
CENTRAL FOOTHILLS

CITY           SKY/WX    TMP DP  RH WIND       PRES   REMARKS
CHARLOTTESVILL LGT RAIN  40  34  79 S6        30.15S
CULPEPER*      LGT RAIN  42  35  75 CALM      30.16S
ORANGE*        DRIZZLE   41  34  75 CALM      30.17S
GORDONSVILLE*  CLOUDY    39  34  83 SW6       30.16R
WARRENTON*     DRIZZLE   43  28  56 S3        30.15S

$$

VAZ055>057-050200-
NORTH AND CENTRAL PIEDMONT

CITY           SKY/WX    TMP DP  RH WIND       PRES   REMARKS
FREDERICKSBRG* DRIZZLE   43  35  75 S5        30.17F
STAFFORD*      DRIZZLE   41  32  70 S6        30.20F

$$

NCZ024-NYZ072-PAZ021-071-VAZ022-071-050200-
OTHER REGIONAL OBSERVATIONS

CITY           SKY/WX    TMP DP  RH WIND       PRES   REMARKS
NEW YORK CITY  CLOUDY    42  25  50 NE7       30.20F
PHILADELPHIA   CLOUDY    44  29  55 SW3       30.18F
PITTSBURGH     LGT RAIN  42  29  59 E9        29.91F
ROANOKE        LGT RAIN  37  36  96 SE8       30.12F FOG
RICHMOND       LGT RAIN  41  34  76 SE5       30.18F
RALEIGH        LGT RAIN  43  40  89 VRB3      30.14F FOG

$$

ANZ530>537-050200-
MARINE OBSERVATIONS

STATION/POSITION TIME  TEMP    WIND        PRES
                       AIR SEA DIR/SP/G
                 (UTC) (F)     (DEG/KT/KT) (MB)
THOMAS PT LIGHT  0000   45 49  130/  9/  9   N/A
BALT KEY BRIDGE  0048   44     140/ 11/ 12 1021.3F
COVE POINT       0048   44     210/  8/ 10 1022.5R
LEWISETTA        0048   44 48  210/  4/  4 1022.1S
SOLOMONS ISLAND  0048   45 51  170/  8/  9   N/A
PINEY POINT      0036          200/  7/  9   N/A

$$




USA.gov is the U.S. government's official web portal to all federal, state and local government web resources and services.